Other Public Products
Issued by NWS Grand Forks, ND

Home | Current Version | Previous Version | Text Only | Print | Product List | Glossary On
Versions: 1 2 3 4 5 6 7 8 9 10 11 12 13 14 15 16 17 18 19 20 21 22 23 24 25 26 27 28 29 30 31 32 33 34 35 36 37 38 39 40 41 42 43 44 45 46 47 48 49 50
000
FPUS83 KFGF 271210
OPUFGF
PRAIRIE TO PINES WEATHER ROUNDUP
NATIONAL WEATHER SERVICE EASTERN NORTH DAKOTA/GRAND FORKS ND
700 AM CDT FRI MAR 27 2015

 **SATELLITE DATA USED TO AUGMENT SKY COVER AT AUTOMATED STATIONS**
 *****  WEATHER ACROSS EASTERN NORTH DAKOTA  *****

CITY           SKY/WX    TMP DP  RH WIND       PRES   REMARKS
GRAND FORKS    MOCLDY    13   9  84 S3        30.25F
6HR MIN TEMP:  12; 6HR MAX TEMP:  17;

GRAND FORKS AF PTCLDY    15  10  80 S5        30.24F WCI   8
GRAND CITY NWS   N/A     14 N/A N/A N1          N/A
BUXTON         NOT AVBL
DEVILS LAKE    CLOUDY    23  16  74 S10       30.17F WCI  12
6HR MIN TEMP:  19; 6HR MAX TEMP:  23;

FARGO          CLEAR     11   6  81 CALM      30.27F
6HR MIN TEMP:   9; 6HR MAX TEMP:  15;

WAHPETON ARPT  SUNNY     10   5  79 CALM      30.28F
$$

 *****  WEATHER ACROSS CENTRAL AND WESTERN NORTH DAKOTA  *****

CITY           SKY/WX    TMP DP  RH WIND       PRES   REMARKS
JAMESTOWN      MOCLDY    20  15  81 S12       30.20F WCI   8
6HR MIN TEMP:  14; 6HR MAX TEMP:  20;

BISMARCK       CLOUDY    26  15  63 S13       30.15F WCI  15
6HR MIN TEMP:  25; 6HR MAX TEMP:  26;

MINOT          LGT SNOW  28  24  85 S12       30.04F FOG     WCI  18
6HR MIN TEMP:  27; 6HR MAX TEMP:  30; 6HR PCP: TRACE;

MINOT AFB      LGT SNOW  28  28 100 S14       30.03F FOG     WCI  17
6HR MIN TEMP:  27; 6HR MAX TEMP:  30; 6HR PCP: TRACE;

GARRISON         N/A     27  23  85 S15       30.06F WCI  15
6HR MIN TEMP:  27; 6HR MAX TEMP:  29; 6HR PCP:  0.01;

WILLISTON      PTCLDY    35  29  78 S8        29.95F
6HR MIN TEMP:  35; 6HR MAX TEMP:  37;

DICKINSON      CLOUDY    33  29  85 S18       29.97F WCI  22
6HR MIN TEMP:  32; 6HR MAX TEMP:  33; 6HR PCP: TRACE;

HETTINGER      CLOUDY    32  28  85 S13       30.04F WCI  22
6HR MIN TEMP:  31; 6HR MAX TEMP:  32; 6HR PCP: TRACE;

$$

 *****  OTHER OBSERVATIONS NORTHEAST NORTH DAKOTA  *****

CITY           SKY/WX    TMP DP  RH WIND       PRES   REMARKS
WALHALLA         N/A     19  14  79 S8        30.20F WCI   9
LANGDON        NOT AVBL
CAVALIER       FAIR      19  10  68 S7        30.23F WCI  10
GRAFTON        NOT AVBL
CANDO          NOT AVBL
FORT TOTTEN      N/A     21  16  82 S8        29.95  WCI  11
ROLLA          CLOUDY    23  19  86 S15G21    30.10F WCI  10
RUGBY          FAIR      25  18  74 S15       30.10F WCI  12
 ***** THE ABOVE OBSERVATIONS ARE NON NWS ARE NOT QUALITY
        CONTROLLED AND MAY MIS-REPORT RAIN FOR SNOW...
$$

 *****  OTHER OBSERVATIONS SOUTHEAST NORTH DAKOTA *****

CITY           SKY/WX    TMP DP  RH WIND       PRES   REMARKS
COOPERSTOWN    NOT AVBL
VALLEY CITY    PTSUNNY   14  14 100 S5        30.23F WCI   6
OAKES            N/A     18  18 100 SW3       30.25F
GWINNER          N/A     18  14  86 SW5         N/A  WCI  11
SHEYENNE NWR     N/A     11   8  88 CALM      29.95S
BUFFALO        NOT AVBL
WYNDMERE         N/A     12   9  85 S2          N/A
 ***** THE ABOVE OBSERVATIONS ARE NON NWS ARE NOT QUALITY
       CONTROLLED AND MAY MIS-REPORT RAIN FOR SNOW...
$$

  *****  WEATHER ACROSS NORTHERN MINNESOTA  *****

CITY           SKY/WX    TMP DP  RH WIND       PRES   REMARKS
FLAG ISLAND    CLEAR      7   3  85 CALM      30.24S
WARROAD        CLEAR     12   9  85 SE3       30.24F
ROSEAU         FAIR      12   9  85 SE5       30.24S WCI   4
HALLOCK        PTCLDY    12   9  85 S6        30.24F WCI   3
THF RVR FALLS  PTCLDY    16  12  86 S3        30.24F
6HR MIN TEMP:  16; 6HR MAX TEMP:  19;

HALSTAD        NOT AVBL
FOSSTON        CLEAR      7   1  78 CALM      30.24F
BAUDETTE       CLEAR      7   3  84 SE3       30.23F
6HR MIN TEMP:   7; 6HR MAX TEMP:  14;

WASKISH        FAIR       5   3  92 CALM      30.25S
CROOKSTON      PTCLDY    10   9  92 S3        30.27S
$$
  *****  WEATHER ACROSS CENTRAL AND WEST MINNESOTA  *****

CITY           SKY/WX    TMP DP  RH WIND       PRES   REMARKS
BEMIDJI        CLEAR      3   0  86 CALM      30.24F
PARK RAPIDS    CLEAR      7   1  76 CALM      30.23F
6HR MIN TEMP:   7; 6HR MAX TEMP:  15;

WADENA         CLEAR      7   3  85 CALM      30.24F
DETROIT LAKES  CLEAR     10  10 100 CALM      30.25S
MOORHEAD       CLEAR     12  12 100 CALM      30.27F
FERGUS FALLS   CLEAR     12   7  79 CALM      30.30S
ELBOW LAKE     FAIR      12  11  95 CALM      30.26S
6HR MIN TEMP:  12; 6HR MAX TEMP:  18;

MORRIS MN      FAIR      12  10  92 CALM      30.27R
STAPLES        CLEAR      9   1  72 CALM      30.26S
WHEATON        CLEAR     14  10  85 CALM      30.30S
$$
  *****  WEATHER ELSEWHERE ACROSS MINNESOTA  *****

CITY           SKY/WX    TMP DP  RH WIND       PRES   REMARKS
DULUTH         CLEAR     11   3  70 N6        30.23R WCI   1
6HR MIN TEMP:  10; 6HR MAX TEMP:  17;

INTRNTL FALLS  CLEAR      4   0  83 CALM      30.25F
6HR MIN TEMP:   4; 6HR MAX TEMP:  11;

ELY            CLEAR      0  -2  92 CALM      30.24R
CLOQUET        CLEAR      9   1  72 NW3       30.25R
BRAINERD       CLEAR      8   5  87 CALM      30.27S
6HR MIN TEMP:   7; 6HR MAX TEMP:  19;

HIBBING        CLEAR      1  -4  79 CALM      30.25R
6HR MIN TEMP:   1; 6HR MAX TEMP:  12;

ALEXANDRIA     CLEAR     15   3  59 E3        30.25F
6HR MIN TEMP:  12; 6HR MAX TEMP:  20;

SAINT CLOUD    CLEAR     12   6  77 CALM      30.28R
6HR MIN TEMP:  11; 6HR MAX TEMP:  21;

MINNEAPOLIS    FAIR      18   4  54 N5        30.28R WCI  11
6HR MIN TEMP:  17; 6HR MAX TEMP:  25;

$$

  *****  WEATHER ACROSS SOUTH DAKOTA  *****

CITY           SKY/WX    TMP DP  RH WIND       PRES   REMARKS
SIOUX FALLS    PTCLDY    14   9  80 W3        30.27R
6HR MIN TEMP:  14; 6HR MAX TEMP:  22;

BROOKINGS      NOT AVBL
WATERTOWN      CLEAR     11   7  84 W5        30.24R WCI   3
6HR MIN TEMP:  10; 6HR MAX TEMP:  18;

HURON          PTCLDY    14  10  84 SW3       30.28F
6HR MIN TEMP:  11; 6HR MAX TEMP:  20;

SISSETON         N/A     13  10  88 CALM      30.26F
ABERDEEN       MOCLDY    18  14  84 S3        30.26F
6HR MIN TEMP:  11; 6HR MAX TEMP:  19;

MITCHELL       PTCLDY    15  10  80 CALM      30.30F
PIERRE         CLOUDY    26  17  68 SE13      30.21S WCI  15
6HR MIN TEMP:  26; 6HR MAX TEMP:  28;

MOBRIDGE       CLOUDY    26  14  60 S16       30.16F WCI  14
RAPID CITY     CLOUDY    34  28  79 SE8       30.05F
6HR MIN TEMP:  32; 6HR MAX TEMP:  34;

$$

  *****  SOME WEATHER IN NEARBY STATES *****

CITY           SKY/WX    TMP DP  RH WIND       PRES   REMARKS
GLASGOW MT     PTCLDY    35  30  82 W7        29.94F
6HR MIN TEMP:  34; 6HR MAX TEMP:  41;

GREAT FALLS MT MOCLDY    41  31  67 SW12      30.06F
6HR MIN TEMP:  40; 6HR MAX TEMP:  49;

CHEYENNE WY    CLOUDY    47  28  47 NW15      30.15S
6HR MIN TEMP:  41; 6HR MAX TEMP:  49;

SCOTTSBLUFF NE LGT RAIN  37  36  96 E5        30.14F
6HR MIN TEMP:  36; 6HR MAX TEMP:  41; 6HR PCP:  0.01;

OMAHA NE       PTCLDY    22  17  81 N6        30.29R WCI  14
6HR MIN TEMP:  22; 6HR MAX TEMP:  32;

DES MOINES IA  CLEAR     26  17  68 N8        30.23R WCI  18
6HR MIN TEMP:  26; 6HR MAX TEMP:  32;

DAVENPORT IA   PTCLDY    24  13  62 NE13      30.18R WCI  12
6HR MIN TEMP:  24; 6HR MAX TEMP:  30;

CHICAGO IL     LGT SNOW  23  12  62 N16G23    30.13R WCI  10
6HR MIN TEMP:  23; 6HR MAX TEMP:  31; 6HR PCP:  0.04;

EAU CLAIRE WI  CLEAR     16   5  62 N3        30.25R
6HR MIN TEMP:  14; 6HR MAX TEMP:  20;

LA CROSSE WI   CLEAR     18  11  74 N3        30.25R
6HR MIN TEMP:  17; 6HR MAX TEMP:  27;

$$

  *****  SOME NATIONAL WEATHER *****

CITY           SKY/WX    TMP DP  RH WIND       PRES   REMARKS


USA.gov is the U.S. government's official web portal to all federal, state and local government web resources and services.